Date String (YYYY-MM-DD hh:mm:ss) UTC,Instrument flags,Ambient pressure (hPa),Sample flow (lpm),Bypass flow (lpm),Sample temperature (°C),Ambient temperature (°C),ASC tube jacket temperature (°C),LED temperature (°C),Box temperature (°C),Sample RH (%),Span deviation,Mass concentration (μg/m³),Mass concentration (μg/m³),Mass concentration (μg/m³)
DateTimeUTC,F1_M11,P_M11,Q1_M11,Q2_M11,T1_M11,T2_M11,T3_M11,T4_M11,T5_M11,U1_M11,ZSPAN_M11,X0_M11,X2_M11,X1_M11
2022-03-13 22:00:00,,0816.2,5.01,0.00,28.2,27.5,00.0,37.1,30.0,06.0,0000.0,0004.00,0001.50,0001.10
2022-03-13 22:01:00,,0816.0,4.99,0.00,28.2,27.6,00.0,37.1,30.0,06.6,0000.0,0003.72,0001.36,0001.02
2022-03-13 22:02:00,,0816.0,5.00,0.00,28.2,27.6,00.0,37.1,30.0,06.3,0000.0,0003.53,0001.26,0000.94
2022-03-13 22:03:00,,0816.0,5.01,0.00,28.3,27.6,00.0,37.1,30.0,06.2,0000.0,0003.41,0001.18,0000.87
2022-03-13 22:04:00,,0815.9,5.01,0.00,28.3,27.6,00.0,37.1,30.0,06.2,0000.0,0003.10,0001.04,0000.80
2022-03-13 22:05:00,,0816.0,5.00,0.00,28.3,27.6,00.0,37.1,30.1,06.4,0000.0,0002.94,0001.04,0000.77
2022-03-13 22:06:00,,0816.0,4.99,0.00,28.3,27.7,00.0,37.2,30.1,06.0,0000.0,0001.91,0000.96,0000.71
2022-03-13 22:07:00,,0816.0,4.99,0.00,28.3,27.7,00.0,37.2,30.1,06.1,0000.0,0001.86,0000.88,0000.64
2022-03-13 22:08:00,,0816.2,5.00,0.00,28.3,27.7,00.0,37.2,30.1,06.0,0000.0,0001.71,0000.81,0000.57
2022-03-13 22:09:00,,0816.1,5.01,0.00,28.4,27.7,00.0,37.2,30.1,06.3,0000.0,0001.74,0000.76,0000.52
2022-03-13 22:10:00,,0816.3,5.00,0.00,28.4,27.7,00.0,37.2,30.1,06.4,0000.0,0001.68,0000.77,0000.52
2022-03-13 22:11:00,,0816.1,5.00,0.00,28.3,27.7,00.0,37.2,30.1,06.0,0000.0,0001.69,0000.78,0000.52
2022-03-13 22:12:00,,0816.2,5.01,0.00,28.3,27.6,00.0,37.2,30.1,05.6,0000.0,0001.65,0000.76,0000.51
2022-03-13 22:13:00,,0816.3,4.99,0.00,28.3,27.6,00.0,37.2,30.0,05.9,0000.0,0001.57,0000.71,0000.49
2022-03-13 22:14:00,,0816.2,5.01,0.00,28.3,27.7,00.0,37.2,30.1,06.0,0000.0,0001.59,0000.71,0000.48
2022-03-13 22:15:00,,0816.0,5.01,0.00,28.3,27.7,00.0,37.2,30.1,05.8,0000.0,0001.69,0000.73,0000.49
2022-03-13 22:16:00,,0816.2,4.99,0.00,28.4,27.7,00.0,37.2,30.1,06.0,0000.0,0001.47,0000.70,0000.48
2022-03-13 22:17:00,,0816.3,4.98,0.00,28.4,27.7,00.0,37.3,30.2,05.9,0000.0,0001.39,0000.69,0000.47
2022-03-13 22:18:00,,0816.1,5.00,0.00,28.4,27.7,00.0,37.3,30.2,05.8,0000.0,0001.32,0000.69,0000.48
2022-03-13 22:19:00,,0816.1,5.00,0.00,28.4,27.7,00.0,37.3,30.2,06.0,0000.0,0001.32,0000.70,0000.48
2022-03-13 22:20:00,,0816.2,5.02,0.00,28.4,27.7,00.0,37.3,30.2,06.2,0000.0,0001.23,0000.69,0000.48
2022-03-13 22:21:00,,0816.3,4.99,0.00,28.4,27.7,00.0,37.3,30.2,05.8,0000.0,0001.23,0000.65,0000.47
2022-03-13 22:22:00,,0816.2,5.00,0.00,28.4,27.7,00.0,37.3,30.1,05.8,0000.0,0001.28,0000.66,0000.48
2022-03-13 22:23:00,,0816.2,4.99,0.00,28.4,27.6,00.0,37.3,30.1,05.6,0000.0,0001.26,0000.66,0000.48
2022-03-13 22:24:00,,0816.2,5.01,0.00,28.4,27.6,00.0,37.3,30.1,05.6,0000.0,0001.29,0000.69,0000.50
2022-03-13 22:25:00,,0816.2,4.99,0.00,28.4,27.6,00.0,37.3,30.1,05.8,0000.0,0001.25,0000.70,0000.51
2022-03-13 22:26:00,,0816.3,5.00,0.00,28.4,27.6,00.0,37.3,30.2,05.6,0000.0,0001.22,0000.71,0000.53
2022-03-13 22:27:00,,0816.3,5.01,0.00,28.4,27.6,00.0,37.3,30.1,05.7,0000.0,0001.31,0000.76,0000.54
2022-03-13 22:28:00,,0816.4,4.99,0.00,28.4,27.6,00.0,37.3,30.1,05.6,0000.0,0001.33,0000.78,0000.55
2022-03-13 22:29:00,,0816.4,4.99,0.00,28.4,27.6,00.0,37.3,30.1,06.0,0000.0,0001.30,0000.77,0000.57
2022-03-13 22:30:00,,0816.4,5.02,0.00,28.4,27.7,00.0,37.3,30.1,05.7,0000.0,0001.26,0000.77,0000.58
2022-03-13 22:31:00,,0816.4,5.00,0.00,28.4,27.7,00.0,37.3,30.1,05.9,0000.0,0001.22,0000.76,0000.59
2022-03-13 22:32:00,,0816.4,4.99,0.00,28.4,27.7,00.0,37.3,30.1,06.0,0000.0,0001.11,0000.79,0000.61
2022-03-13 22:33:00,,0816.4,5.02,0.00,28.4,27.7,00.0,37.3,30.1,05.9,0000.0,0001.10,0000.80,0000.61
2022-03-13 22:34:00,,0816.3,5.01,0.00,28.4,27.7,00.0,37.3,30.2,05.8,0000.0,0001.23,0000.86,0000.62
2022-03-13 22:35:00,,0816.4,4.99,0.00,28.4,27.7,00.0,37.3,30.1,05.8,0000.0,0001.25,0000.87,0000.63
2022-03-13 22:36:00,,0816.4,4.99,0.00,28.4,27.7,00.0,37.3,30.2,05.8,0000.0,0001.23,0000.86,0000.63
2022-03-13 22:37:00,,0816.4,5.01,0.00,28.4,27.7,00.0,37.3,30.2,05.8,0000.0,0001.21,0000.85,0000.63
2022-03-13 22:38:00,,0816.4,5.00,0.00,28.4,27.7,00.0,37.3,30.2,05.9,0000.0,0001.09,0000.80,0000.63
2022-03-13 22:39:00,,0816.4,4.99,0.00,28.4,27.7,00.0,37.3,30.1,06.1,0000.0,0001.04,0000.78,0000.62
2022-03-13 22:40:00,,0816.4,4.99,0.00,28.4,27.7,00.0,37.3,30.1,06.1,0000.0,0001.14,0000.79,0000.63
2022-03-13 22:41:00,,0816.4,5.00,0.00,28.4,27.7,00.0,37.3,30.1,06.3,0000.0,0001.28,0000.82,0000.63
2022-03-13 22:42:00,,0816.4,5.00,0.00,28.4,27.7,00.0,37.3,30.1,06.2,0000.0,0001.37,0000.85,0000.62
2022-03-13 22:43:00,,0816.4,4.99,0.00,28.4,27.7,00.0,37.3,30.1,06.1,0000.0,0001.39,0000.85,0000.62
2022-03-13 22:44:00,,0816.4,5.02,0.00,28.4,27.7,00.0,37.3,30.1,05.9,0000.0,0001.43,0000.86,0000.62
2022-03-13 22:45:00,,0816.4,5.00,0.00,28.4,27.7,00.0,37.4,30.1,05.7,0000.0,0001.35,0000.82,0000.62
2022-03-13 22:46:00,,0816.4,4.99,0.00,28.4,27.7,00.0,37.4,30.2,05.8,0000.0,0001.34,0000.80,0000.62
2022-03-13 22:47:00,,0816.4,5.01,0.00,28.4,27.7,00.0,37.4,30.2,05.9,0000.0,0001.38,0000.81,0000.62
2022-03-13 22:48:00,,0816.4,5.00,0.00,28.5,27.8,00.0,37.4,30.2,05.9,0000.0,0001.33,0000.79,0000.61
2022-03-13 22:49:00,,0816.4,5.00,0.00,28.5,27.8,00.0,37.4,30.2,05.9,0000.0,0001.34,0000.80,0000.61
2022-03-13 22:50:00,,0816.4,4.99,0.00,28.5,27.8,00.0,37.4,30.2,06.0,0000.0,0001.41,0000.82,0000.61
2022-03-13 22:51:00,,0816.4,5.01,0.00,28.5,27.8,00.0,37.4,30.2,05.9,0000.0,0001.41,0000.83,0000.62
2022-03-13 22:52:00,,0816.4,5.00,0.00,28.5,27.8,00.0,37.4,30.2,06.0,0000.0,0001.27,0000.81,0000.61
2022-03-13 22:53:00,,0816.3,4.99,0.00,28.5,27.8,00.0,37.4,30.2,06.2,0000.0,0001.20,0000.80,0000.61
2022-03-13 22:54:00,,0816.4,5.01,0.00,28.5,27.8,00.0,37.4,30.2,06.3,0000.0,0001.23,0000.81,0000.62
2022-03-13 22:55:00,,0816.4,5.01,0.00,28.5,27.8,00.0,37.4,30.2,06.5,0000.0,0001.13,0000.77,0000.62
2022-03-13 22:56:00,,0816.5,5.00,0.00,28.5,27.8,00.0,37.4,30.2,06.4,0000.0,0001.13,0000.77,0000.62
2022-03-13 22:57:00,,0816.5,5.00,0.00,28.5,27.7,00.0,37.4,30.2,06.5,0000.0,0001.14,0000.78,0000.62
2022-03-13 22:58:00,,0816.5,5.01,0.00,28.5,27.7,00.0,37.4,30.2,06.6,0000.0,0001.16,0000.79,0000.62
2022-03-13 22:59:00,,0816.4,4.99,0.00,28.5,27.8,00.0,37.4,30.2,06.5,0000.0,0001.24,0000.83,0000.63
